MDT,Max TemperatureF,Mean TemperatureF,Min TemperatureF,Max Dew PointF,MeanDew PointF,Min DewpointF,Max Humidity, Mean Humidity, Min Humidity, Max Sea Level PressureIn, Mean Sea Level PressureIn, Min Sea Level PressureIn, Max VisibilityMiles, Mean VisibilityMiles, Min VisibilityMiles, Max Wind SpeedMPH, Mean Wind SpeedMPH, Max Gust SpeedMPH,PrecipitationIn, CloudCover, Events, WindDirDegrees
2012-10-1,69,52,33,52,38,24,84,55,19,30.26,30.17,30.10,10,10,7,22,12,31,0.01,1,Rain,352
2012-10-2,84,57,30,38,33,26,86,47,16,30.12,29.91,29.79,10,10,10,13,4,20,0.00,0,,181
2012-10-3,90,63,37,38,33,24,81,47,10,30.28,29.87,29.71,10,10,5,32,10,46,0.00,0,,326
2012-10-4,52,42,32,31,27,22,87,56,33,30.38,30.32,30.27,10,10,10,24,13,37,0.01,1,,3
2012-10-5,39,36,34,36,31,24,95,79,62,30.37,30.33,30.27,10,8,1,8,2,,0.05,8,Rain-Snow,109
2012-10-6,37,30,24,34,31,23,97,93,85,30.39,30.34,30.30,10,6,0,13,3,,0.14,6,Rain-Snow,66
2012-10-7,55,36,19,35,27,18,94,75,32,30.29,30.13,30.00,10,10,10,16,5,20,0.00,0,,262
2012-10-8,71,50,29,33,27,19,90,55,14,30.00,29.89,29.81,10,10,10,13,6,16,0.00,0,,262
2012-10-9,52,40,28,39,32,26,89,66,43,30.21,30.07,29.85,10,10,10,25,10,29,0.00,3,,354
2012-10-10,66,46,25,38,33,24,94,64,33,30.20,30.07,29.95,10,10,10,18,6,25,0.00,0,,227
2012-10-11,55,45,35,39,32,25,86,60,39,30.33,30.14,29.92,10,10,10,22,8,28,0.00,0,,55
2012-10-12,50,38,26,39,30,23,86,69,55,30.33,30.12,29.83,10,10,10,16,4,21,0.00,2,,146
2012-10-13,74,54,34,47,38,32,95,55,24,29.98,29.78,29.69,10,10,7,28,9,33,0.00,2,,322
2012-10-14,72,56,39,38,34,32,75,46,23,30.15,30.09,29.99,10,10,10,24,12,32,0.00,1,,308
2012-10-15,82,58,35,40,32,27,87,49,13,30.07,29.91,29.77,10,10,10,13,5,21,0.00,0,,252
2012-10-16,79,60,42,48,36,30,73,41,17,29.82,29.65,29.45,10,10,3,23,10,32,0.00,2,Rain,265
2012-10-17,57,51,45,45,24,13,72,36,18,29.90,29.76,29.57,10,10,10,39,23,48,0.00,3,,317
2012-10-18,57,48,40,19,12,7,41,25,15,29.97,29.91,29.88,10,8,1,55,32,69,0.00,1,,315
2012-10-19,70,49,28,27,17,6,56,32,16,30.00,29.89,29.75,10,10,10,15,7,18,0.00,0,,296
2012-10-20,83,58,35,30,26,23,70,36,12,29.76,29.69,29.62,10,10,7,14,5,21,0.00,0,,246
2012-10-21,70,52,34,40,34,23,77,48,28,29.90,29.77,29.66,10,10,10,23,7,26,0.00,0,,36
2012-10-22,65,54,44,46,43,40,88,76,46,29.96,29.88,29.75,10,10,10,12,7,,0.00,5,,57
2012-10-23,80,64,48,50,43,34,94,64,19,29.84,29.72,29.66,10,8,2,20,7,26,0.00,3,,124
2012-10-24,54,44,33,40,36,32,93,70,48,29.99,29.88,29.80,10,9,0,33,15,40,0.03,6,Rain-Snow,40
2012-10-25,39,32,24,32,27,22,93,80,64,30.37,30.20,29.99,10,8,1,26,15,33,0.05,3,Snow,341
2012-10-26,36,30,25,29,26,24,93,83,69,30.50,30.39,30.27,10,10,10,12,3,16,0.00,5,,212
2012-10-27,49,36,25,33,28,22,92,77,43,30.26,30.15,30.07,10,10,10,14,4,20,0.00,1,,207
2012-10-28,62,42,24,36,31,22,92,70,29,30.16,30.06,29.97,10,10,10,13,2,17,0.00,5,,181
2012-10-29,73,52,32,42,36,29,95,69,28,30.08,30.03,29.97,10,10,10,9,5,16,0.00,0,,258
2012-10-30,72,54,37,39,36,32,91,55,23,30.09,30.03,29.98,10,10,2,24,7,30,0.00,0,,313
2012-10-31,72,52,33,40,33,31,93,62,23,30.08,30.05,30.02,10,10,10,10,6,,0.00,0,,276